Погода в Клаипеде

Поиск расширенной информации на нашем сайте:

Полезная информация:

Новости сайта



02.01.2020
Опубликован Долгосрочный прогноз погоды по городам России и ближнего зарубежья на январь 2020 года.
Карты: Прогноз на январь и февраль 2020 года, Сравнение прогнозируемой аномалии приземной температуры воздуха на январь 2020 года по разным моделям.




Погода в Клаипеде - сегодня

Время (UTC), дата Ветер
(°,м/с) 
Видим.   Явления Облачность Т
(°С)
Тd
(°С)
f(%) Тe
(°С)
Pmin
(гПа)
dP
(гПа)
Po
(мм)
O2
(г/м3)
Тmin Tmax R s Состояние
почвы
15 16.04.21 070 (В) 4-7{10}  20000 м    10/0 верхняя 
[Ci]
+12.9 +1.2 45 +12  1018  0.1  763  293           
18 16.04.21 040 (СВ) 1-2{10}  20000 м  {дождь}  4/4 600 м 
[Sc]
+10.9 +1.9 54 +12  1019.1  1.1  764  296    +13.5  0.0     
21 16.04.21 050 (СВ) 2-4{05}  20000 м    ясно <0100 м 
+9 +1.4 59 +9  1020.2  1.1  764  298           
00 17.04.21 060 (СВ) 3-6{06}  20000 м    ясно 
+8.5 +1.6 62 +8  1020.1  0.1  764  298           
03 17.04.21 060 (СВ) 3-7{07}  20000 м    10/10 600 м 
[Sc]
+7.6 +1.3 64 +7  1020.3  0.2  765  300           
06 17.04.21 060 (СВ) 4-6{07}  20000 м    9/6 1000 м средняя, верхняя 
[Sc|Ac trans|Ci sp]
+9.3 +1.7 59 +8  1021.1  0.8  765  298  +7.3        влажная 
09 17.04.21 050 (СВ) 2-4{06}  20000 м  в посл. час ливневой дождь  4/0 верхняя 
[Ci sp]
+14.4 +3.7 49 +15  1021.5  0.4  765  292           
12 17.04.21 090 (В) 3-5{07}  20000 м  {ливн. осадки}  6/4 1000 м верхняя 
[Cu med, cong|Cc]
+17 +4.9 45 +17  1020.7  -0.8  765  289      0.0     
15 17.04.21 300 (СЗ) 2-3{07}  20000 м    9/8 1500 м средняя 
[Sc|Ac trans]
+13 +4.7 57 +13  1020.6  -0.1  765  293           
18 17.04.21 040 (СВ) 2-4{04}  20000 м    ясно 
+14 +3.7 50 +15  1021.1  0.5  765  293    +18.9  0.0     
21 17.04.21 040 (СВ) 3-5{05}  20000 м    ясно <0100 м 
+12 +2.1 51 +12  1021.5  0.4  765  295           
00 18.04.21 070 (В) 2-4{05}  20000 м    ясно 
+9.2 +2 61 +9  1021.8  0.3  766  298           
03 18.04.21 070 (В) 3-5{06}  20000 м    ясно 
+8.5 +1.3 60 +8  1021.5  -0.3  765  299           
06 18.04.21 070 (В) 3-6{06}  20000 м    ясно 
+10.9 +1.9 54 +11  1022  0.5  766  296  +7.6        влажная 
09 18.04.21 050 (СВ) 4-8{08}  20000 м    ясно <0100 м 
+18.2 +2.1 34 +19  1021.8  -0.2  766  289           
12 18.04.21 050 (СВ) 3-7{09}  20000 м    8/0 верхняя 
[Ci sp]
+20.3 +1.2 28 +20  1021.1  -0.7  765  287           
15 18.04.21 050 (СВ) 3-6{09}  20000 м    ясно <0100 м 
+20.5 +0.8 27 +21  1020.4  -0.7  765  286           
18 18.04.21 040 (СВ) 2-4{08}  20000 м    ясно 
+16.4 +1.7 37 +17  1021  0.6  765  291    +21.2       
21 18.04.21 050 (СВ) 2-5{06}  20000 м    ясно <0100 м 
+12.3 +0 43 +13  1021.7  0.7  766  295           
00 19.04.21 070 (В) 3-5{06}  20000 м    ясно 
+9.6 -1.5 46 +9  1021.2  -0.5  765  298           
03 19.04.21 070 (В) 4-6{07}  20000 м    ясно 
+7.7 -2.7 48 +6  1021.1  0.1  765  300           
06 19.04.21 070 (В) 4-6{07}  20000 м    ясно 
+10.6 -2.5 40 +10  1021.4  0.3  765  297  +7.2        сухая 
09 19.04.21 050 (СВ) 3-7{08}  20000 м    ясно <0100 м 
+17.2 -2.5 26 +18  1021  -0.4  765  290           
12 19.04.21 010 (С) 3-6{09}  20000 м    ясно 
+18.4 -5.7 19 +19  1020.1  -0.9  764  289           
15 19.04.21 100 (В) 3-7{07}  20000 м    3/3 1000 м 
[Cu med, cong]
+19.3 -4.9 19 +20  1019.2  -0.9  764  288           
Время (UTC), дата Ветер
(°,м/с) 
Видим.   Явления Облачность Т
(°С)
Тd
(°С)
f(%) Тe
(°С)
Pmin
(гПа)
dP
(гПа)
Po
(мм)
O2
(г/м3)
Тmin Tmax R s Состояние
почвы

Для получения пояснительной информации подведите курсор к названию столбца.

ПОГОДА в Клаипеде - архив

Всё, что Вы хотите узнать о погоде в Клаипеде - удобно и подробно!

Выберите нужную дату (начиная с 1 января 2019* года) и нажмите кнопку "Найти".
Будут отображены архивные сводки погоды по пункту Клаипеда, начиная с указанной даты.


Отображать данные в формате CSV (для использования в таблицах Excel)


Внимание! Наш архив погоды предназначен исключительно для личного некоммерческого использования в познавательных целях. Если Вам необходимы официальные справки о состоянии погоды (для производственных, юридических, коммерческих и т.п. целей), обращайтесь в органы Росгидромета.

*Примечание: данная дата относится к архиву по метеостанциям СССР (Россия, СНГ, Балтия).
Архив по метеостанциям Зарубежной Европы и Азии (кроме Китая) хранится 10 дней, по другим регионам земного шара (Китай, Африка, Америка, Австралия, Океания) - 1 день.

Клаипеда - район местоположения метеостанции


Название, широта, долгота, высота метеостанции:
Клаипеда 55.7°ш. 21.1°д. 7 м над ур. моря [Литва]

Дополнительная информация

В oтличие oт бoльшинства пoгoдных сайтoв мы публикуем пoдрoбную метеoинфoрмацию в детальнoм прoфессиoнальнoм фoрмате.

Характеристики температуры и влажнoсти вoздуха измеряются на высoте 2 м в тени вдали oт зданий и деревьев.
Скoрoсть ветра измеряется на высoте 10 м (на урoвне рoста челoвека скoрoсть ветра ниже в 1.5-2 раза). Если метеoстанция нахoдится в гoрoде или в лесу, тo скoрoсть ветра занижена на 2-4 м/с пo сравнению с oткрытым местoм. Скoрoсть ветра над акватoриями крупных рек и oзёр, а также на вершинах хoлмoв на 2-5 м/с выше, чем в oбычных услoвиях.
Атмoсфернoе давление в разных тoчках местнoсти мoжет значительнo oтличаться oт давления на метеoстанции, в зависимoсти oт услoвий рельефа (при пoдъёме на 10 м давление пoнижается примернo на 1 мм рт.ст.).